POPACS 1

Last updated on Sun Dec 07 2025 00:03:49 GMT+0000 (Coordinated Universal Time)

1 39268U 13055D 25340.65062356 .00263566 21220-4 85978-3 0 9998 2 39268 80.9553 219.6307 0123987 67.9812 293.4566 15.79078633642614
UTC large
Height (km)
Speed (km/s)
/
Latitude / Longitude
Inclination (degrees)
Orbital Period (minutes)
Azimuth
Elevation
Range (km)
Doppler Factor

Next 0 passes for location: London (51.5072 / 0.1276)

Sorry there are no passes over London.